Find Starlink 4590

NORAD ID: 53606 • Int'l Des: 2022-104 • Owner: SPXS • Country: US • Constellation: starlink • operational
LEOCIRCULAR

当前视图

正在加载3D地球...

About Starlink 4590

Starlink 4590 (NORAD 53606) is a starlink constellation satellite (v1.5) launched Aug 28, 2022 by SPXS of US. It operates in LEO, CIRCULAR orbit with a mass of 300.00 kg.

即将过境

Passes for default location (London). Set your location on the main map for personalized predictions.

高度历史

Loading altitude history...

两行轨道根数

1 53606U 22104U 26266.72403206 -.00002236 00000-0 -55105-4 0 9990
2 53606 53.1616 52.3545 0001010 91.5665 268.5453 15.34371538225701
Epoch: Sep 23, 2026 • Age: 25 hours

当前状态

高度 466.3 km
远地点 / 近地点 N/A
速度 7.64 km/s
星下点 42.01°N, 166.45°E
发射日期 Aug 28, 2022
运行时间 4 years
类型 internet

技术详情

分类 Payload
质量 300.00 kg
干质量 290.00 kg
长度 0.20 m
跨度 9.00 m
形状 ? Box + pan
制造商 SPXS
平台类型 Starlink
阶段状态 In Orbit
所有者/国家 SPXS/US

Most Searched